Weather observations for the past three days for
Weno Island - Chuuk Int. Airport
| Date | Time (+10) | Wind (kph) | Vis. (km) | Weather | Sky Cond. | Temperature (ºC) | Relative Humidity | Wind Chill (°C) | Heat Index (°C) | Pressure | Precipitation (cm) | ||||||
|---|---|---|---|---|---|---|---|---|---|---|---|---|---|---|---|---|---|
| Air | Dwpt | 6 hour | altimeter (cm) | sea level (mb) | 1 hr | 3 hr | 6 hr | ||||||||||
| Max. | Min. | ||||||||||||||||
| 10 | 04:53 | Vrbl 7 | 24.14 | Overcast | SCT012CB BKN120 OVC280 | 26.5 | 25.2 | 93% | 30 | 75.57 | 1007.8 | ||||||
| 10 | 03:53 | SE 13 | 24.14 | Overcast | SCT012CB BKN120 OVC280 | 26.8 | 25.6 | 27.8 | 26.8 | 93% | 30 | 75.54 | 1007.2 | 0.51 | |||
| 10 | 02:51 | Vrbl 7 | 24.14 | Overcast | SCT012CB BKN120 OVC280 | 27 | 25.9 | 94% | 31 | 75.51 | 1006.9 | ||||||
| 10 | 01:53 | Vrbl 7 | 24.14 | Overcast | SCT012CB BKN120 OVC280 | 27 | 26 | 94% | 31 | 75.51 | 1006.7 | ||||||
| 10 | 00:50 | Vrbl 6 | 24.14 | Overcast | SCT012CB BKN120 OVC280 | 27.4 | 26.4 | 94% | 32 | 75.57 | 1007.8 | 0.3 | |||||
| 09 | 23:54 | Vrbl 6 | 24.14 | Overcast | SCT012CB BKN120 OVC280 | 27.4 | 26.3 | 94% | 32 | 75.62 | 1008.3 | ||||||
| 09 | 22:53 | Vrbl 7 | 24.14 | Overcast | SCT014CB BKN120 OVC280 | 27.5 | 26.3 | 93% | 33 | 75.64 | 1008.8 | ||||||
| 09 | 21:54 | Vrbl 7 | 24.14 | Overcast | FEW014 BKN120 OVC280 | 27.9 | 26.3 | 30 | 27.8 | 91% | 34 | 75.67 | 1008.9 | ||||
| 09 | 20:50 | Vrbl 6 | 24.14 | Overcast | SCT014CB BKN120 OVC280 | 27.8 | 26.2 | 91% | 33 | 75.64 | 1008.4 | ||||||
| 09 | 19:51 | Vrbl 6 | 24.14 | Overcast | SCT014CB BKN120 OVC280 | 28.1 | 26.2 | 89% | 34 | 75.59 | 1007.9 | ||||||
| 09 | 18:50 | Vrbl 6 | 24.14 | Overcast | SCT024CB BKN120 OVC280 | 28.4 | 26.3 | 88% | 35 | 75.54 | 1007.4 | ||||||
| 09 | 17:50 | N 11 | 24.14 | Overcast | SCT014CB BKN120 OVC280 | 28.8 | 25.9 | 84% | 35 | 75.51 | 1007.1 | ||||||
| 09 | 16:50 | N 11 | 24.14 | Overcast | FEW014CB BKN120 OVC280 | 29.4 | 26.3 | 83% | 37 | 75.46 | 1006.2 | ||||||
| 09 | 15:50 | Vrbl 6 | 24.14 | Overcast | SCT014CB BKN120 OVC280 | 30 | 26.1 | 35.4 | 29.1 | 80% | 38 | 75.41 | 1005.7 | 0.25 | |||
| 09 | 14:52 | Vrbl 7 | 24.14 | Overcast | SCT014CB BKN120 OVC280 | 30.3 | 27 | 83% | 39 | 75.41 | 1005.7 | ||||||
| 09 | 13:50 | NE 17 | 24.14 | Overcast | SCT014TCU OVC280 | 30.9 | 26.4 | 77% | 40 | 75.44 | 1005.9 | ||||||
| 09 | 12:51 | NE 15 | 24.14 | Mostly Cloudy | FEW014 BKN280 | 30.6 | 26.2 | 77% | 39 | 75.46 | 1006.4 | 0.2 | |||||
| 09 | 11:50 | NE 13 G 28 | 22.53 | Light Showers Rain | FEW012CB SCT120 OVC280 | 29.1 | 26.6 | 86% | 37 | 75.54 | 1007.2 | ||||||
| 09 | 10:50 | NE 13 G 28 | 24.14 | Mostly Cloudy | FEW012 BKN280 | 35.4 | 30.1 | 74% | 54 | 75.59 | 1007.8 | ||||||
| 09 | 08:50 | Vrbl 9 | 24.14 | Mostly Cloudy | FEW014 BKN280 | 30.4 | 26.1 | 78% | 38 | 75.64 | 1008.8 | ||||||
| 09 | 07:52 | Vrbl 9 | 24.14 | Mostly Cloudy | FEW014 BKN280 | 30.4 | 26 | 77% | 38 | 75.64 | 1008.4 | ||||||
| 09 | 06:51 | Vrbl 9 | 24.14 | Mostly Cloudy | FEW014 BKN280 | 28.6 | 25.1 | 81% | 34 | 75.62 | 1008.3 | ||||||
| 09 | 04:50 | Vrbl 9 | 24.14 | Overcast | FEW014CB SCT120 OVC280 | 27.2 | 25.2 | 89% | 31 | 75.49 | 1006.7 | ||||||
| 09 | 03:53 | NE 13 | 24.14 | Overcast | FEW014CB SCT120 OVC280 | 27.5 | 25.3 | 28.2 | 27.1 | 88% | 32 | 75.46 | 1006.4 | 0.1 | |||
| 09 | 02:54 | NE 13 | 24.14 | Overcast | FEW014 BKN120 OVC280 | 27.4 | 25.3 | 88% | 32 | 75.54 | 1007.2 | ||||||
| 09 | 01:53 | E 11 | 24.14 | Overcast | FEW014 BKN120 OVC280 | 27.5 | 25.4 | 88% | 32 | 75.59 | 1007.9 | ||||||
| 09 | 00:50 | E 13 | 24.14 | Overcast | FEW014 BKN120 OVC280 | 27.7 | 25.6 | 88% | 33 | 75.62 | 1008.3 | ||||||
| 08 | 23:53 | E 11 | 24.14 | Overcast | FEW014 BKN120 OVC280 | 27.1 | 25.3 | 90% | 31 | 75.69 | 1009.3 | ||||||
| 08 | 22:51 | E 13 | 24.14 | Overcast | FEW014 BKN120 OVC280 | 27.1 | 25.3 | 90% | 31 | 75.72 | 1009.4 | ||||||
| 08 | 21:52 | NE 13 G 28 | 24.14 | Overcast | FEW014 BKN120 OVC280 | 28.2 | 25.3 | 31 | 27 | 84% | 33 | 75.72 | 1009.8 | 0.1 | |||
| 08 | 20:50 | Vrbl 7 | 24.14 | Overcast | FEW014CB SCT120 OVC280 | 27 | 24.7 | 87% | 30 | 75.69 | 1009.3 | ||||||
| 08 | 19:50 | NE 20 | 24.14 | Mostly Cloudy | SCT012 BKN120 BKN280 | 28.3 | 25.2 | 83% | 33 | 75.64 | 1008.8 | ||||||
| 08 | 18:52 | NE 15 | 24.14 | Mostly Cloudy | FEW014 BKN120 BKN280 | 28.7 | 25.5 | 83% | 34 | 75.62 | 1008.3 | 0.03 | |||||
| 08 | 17:57 | NE 19 | 24.14 | Mostly Cloudy | SCT012 BKN120 BKN280 | 28.7 | 25.8 | 84% | 35 | 75.57 | 1007.6 | ||||||
| 08 | 16:50 | NE 20 | 24.14 | Mostly Cloudy | FEW012 SCT120 BKN280 | 29.3 | 26.2 | 83% | 36 | 75.51 | 1006.7 | ||||||
| 08 | 15:50 | NE 19 G 31 | 24.14 | Showers in Vicinity | FEW014CB SCT120 BKN290 | 31 | 25.9 | 31 | 30.4 | 74% | 39 | 75.49 | 1006.6 | ||||
| 08 | 14:56 | NE 19 G 30 | 24.14 | Mostly Cloudy | FEW012 SCT120 BKN280 | 30.8 | 25.7 | 74% | 38 | 75.49 | 1006.6 | ||||||
| 08 | 13:50 | NE 19 G 31 | 24.14 | Mostly Cloudy | FEW014 SCT120 BKN280 | 30.9 | 25.7 | 74% | 39 | 75.49 | 1006.7 | ||||||
| 08 | 12:50 | NE 19 G 35 | 24.14 | Mostly Cloudy | SCT012 BKN120 BKN280 | 30.9 | 26.1 | 76% | 39 | 75.51 | 1007.1 | ||||||
| 08 | 11:51 | NE 19 G 33 | 24.14 | Mostly Cloudy | FEW014 BKN280 | 30.9 | 25.4 | 73% | 38 | 75.59 | 1008.1 | ||||||
| 08 | 10:50 | NE 17 G 28 | 24.14 | Mostly Cloudy | FEW014 BKN280 | 30.9 | 25.7 | 74% | 39 | 75.64 | 1008.8 | ||||||
| 08 | 09:50 | NE 17 G 28 | 24.14 | Mostly Cloudy | FEW014 BKN120 BKN280 | 30.4 | 25.6 | 30.4 | 28.2 | 76% | 38 | 75.72 | 1009.8 | ||||
| 08 | 08:51 | NE 20 G 28 | 24.14 | Mostly Cloudy | FEW014CB BKN120 BKN280 | 29.7 | 25.6 | 79% | 36 | 75.74 | 1010.0 | ||||||
| 08 | 07:53 | NE 17 G 28 | 24.14 | Mostly Cloudy | FEW014 BKN120 BKN280 | 29.7 | 25.6 | 79% | 36 | 75.72 | 1009.8 | ||||||
| 08 | 06:52 | NE 13 G 33 | 24.14 | Mostly Cloudy | FEW014 BKN120 BKN280 | 28.9 | 25.4 | 81% | 35 | 75.69 | 1009.4 | ||||||
| 08 | 05:51 | Vrbl 7 | 24.14 | Mostly Cloudy | FEW014 BKN120 BKN280 | 28.7 | 25.4 | 82% | 34 | 75.69 | 1009.3 | ||||||
| 08 | 04:52 | Vrbl 7 | 24.14 | Mostly Cloudy | FEW014 BKN120 BKN280 | 28.2 | 25.4 | 85% | 33 | 75.59 | 1008.1 | ||||||
| 08 | 03:50 | Vrbl 9 | 24.14 | Mostly Cloudy | FEW014 BKN280 | 28.4 | 25.1 | 27.2 | 25 | 82% | 34 | 75.54 | 1007.4 | ||||
| 08 | 02:51 | Vrbl 9 | 24.14 | Mostly Cloudy | FEW014 BKN280 | 28.4 | 25.1 | 82% | 34 | 75.54 | 1007.4 | ||||||
| 08 | 01:51 | NE 13 | 24.14 | Mostly Cloudy | FEW014 BKN280 | 28.4 | 25.1 | 82% | 34 | 75.57 | 1007.6 | ||||||
| 08 | 00:50 | NE 15 | 24.14 | Mostly Cloudy | SCT014 BKN280 | 28.6 | 25.5 | 83% | 34 | 75.57 | 1007.8 | ||||||
| 07 | 23:55 | NE 13 | 24.14 | Mostly Cloudy | FEW014 BKN280 | 28.6 | 25.6 | 84% | 34 | 75.64 | 1008.4 | ||||||
| 07 | 22:52 | NE 13 | 24.14 | Mostly Cloudy | FEW014 BKN280 | 28.7 | 25.5 | 83% | 34 | 75.69 | 1009.3 | ||||||
| 07 | 21:50 | Vrbl 6 | 24.14 | Mostly Cloudy | FEW014 BKN280 | 28.6 | 25.5 | 30.6 | 28.6 | 83% | 34 | 75.72 | 1009.6 | ||||
| 07 | 20:51 | Vrbl 7 | 24.14 | Mostly Cloudy | FEW014 BKN280 | 28.7 | 25.5 | 83% | 34 | 75.69 | 1009.4 | ||||||
| 07 | 19:51 | NE 13 | 24.14 | Overcast | FEW014 BKN120 OVC280 | 28.7 | 25.9 | 85% | 35 | 75.64 | 1008.8 | ||||||
| 07 | 18:50 | NE 13 G 26 | 24.14 | Overcast | FEW014 BKN120 OVC280 | 28.6 | 25.8 | 85% | 35 | 75.59 | 1008.1 | ||||||
| 07 | 17:52 | NE 13 | 24.14 | Overcast | FEW014 BKN120 OVC280 | 28.6 | 25.4 | 83% | 34 | 75.57 | 1007.6 | ||||||
| 07 | 16:50 | NE 17 | 24.14 | Overcast | FEW014 BKN120 OVC280 | 30 | 26 | 79% | 37 | 75.51 | 1006.7 | ||||||
| 07 | 15:50 | NE 15 G 28 | 24.14 | Overcast | FEW014 BKN120 OVC280 | 30.6 | 25.8 | 30.6 | 27.6 | 76% | 38 | 75.49 | 1006.7 | ||||
| 07 | 14:51 | NE 19 G 30 | 24.14 | Overcast | FEW014 BKN120 OVC280 | 30.2 | 25.3 | 75% | 37 | 75.49 | 1006.6 | ||||||
| 07 | 13:55 | NE 15 | 24.14 | Overcast | FEW014 BKN120 OVC280 | 30 | 25.2 | 75% | 36 | 75.57 | 1007.6 | ||||||
| 07 | 12:51 | NE 20 G 37 | 24.14 | Overcast | FEW014 BKN120 OVC280 | 29.2 | 25 | 78% | 35 | 75.62 | 1008.4 | ||||||
| 07 | 11:52 | NE 11 | 24.14 | Overcast | FEW014 BKN120 OVC280 | 29.2 | 24.1 | 74% | 34 | 75.67 | 1008.9 | ||||||
| 07 | 10:50 | Vrbl 7 | 24.14 | Overcast | SCT012 OVC110 | 27.9 | 25.9 | 89% | 33 | 75.69 | 1009.3 | ||||||
| 07 | 09:50 | NE 11 | 24.14 | Overcast | FEW012 BKN110 OVC280 | 27.6 | 24.6 | 27.6 | 26.1 | 84% | 32 | 75.74 | 1010.0 | 0.23 | |||
| 07 | 08:51 | NE 15 G 35 | 19.31 | Overcast | SCT012CB BKN110 OVC280 | 27.1 | 24.1 | 84% | 30 | 75.74 | 1010.1 | ||||||
| 07 | 07:52 | NE 17 G 35 | 19.31 | Overcast | SCT012 OVC110 | 26.3 | 24.2 | 88% | 29 | 75.72 | 1009.4 | ||||||
| 07 | 06:51 | NE 20 G 46 | 16.09 | Light Showers Rain | SCT010CB OVC110 | 26.4 | 24.4 | 89% | 29 | 75.67 | 1009.1 | 0.2 | |||||
| 07 | 05:51 | NE 11 | 19.31 | Overcast | SCT010CB OVC110 | 26.1 | 24.6 | 91% | 28 | 75.62 | 1008.3 | ||||||
| Date | Time (+10) | Wind (kph) | Vis. (km) | Weather | Sky Cond. | Air | Dwpt | Max. | Min. | Relative Humidity | Wind Chill (°C) | Heat Index (°C) | altimeter (cm) | sea level (mb) | 1 hr | 3 hr | 6 hr |
| 6 hour | |||||||||||||||||
| Temperature (ºC) | Pressure | Precipitation (cm) | |||||||||||||||